sat.trackr.live / text

‹ back to catalog

SBSS (USA 216)

NORAD 37168 · 2010-048A

PAYLOAD ACTIVE UNKNOWN

§ Identity

Operator
Country
US
Launch date
2010-09-26
Launch site
AFWTR
Launch vehicle
Mass (kg)
RCS (m²)
3.84

External: N2YO · Heavens-Above · Gunter

§ Orbital elements

Epoch: 2026-09-09T04:43:20.673120Z

Period
94.92 min
Inclination
97.7192°
Eccentricity
0.0078217
Mean motion
15.17116836 rev/d
Perigee alt
460.6 km
Apogee alt
568.5 km
Semi-major
6,892.7 km
B*
1.7796e-4
RAAN
139.2645°
Arg perigee
273.6887°
Mean anomaly
253.1403°
Rev number
86,520

§ Raw data

SBSS (USA 216)1 37168U 10048A   26252.19676705  .00003737  00000+0  17796-3 0  99982 37168  97.7192 139.2645 0078217 273.6887 253.1403 15.17116836865206

JSON: /api/v1/satellites/37168 · /tle

For live sub-satellite position, see the globe view (requires WebGL).

§ Visibility from observer

Set your observer location to see the next 7 days of passes ≥ 10°. The values pass through the URL so the page stays shareable.

No JS? Fill the form by hand. The geolocation button needs JavaScript.